Newark, NJ

3:53 AM EDT on April 28, 2017 (GMT -0400)
Newark International

Weather History for KEWR - August, 2012

Change the Weather History Date:

Friday, August 31, 2012

  Actual Average Record
Temperature  
Mean Temperature 79 °F 73 °F  
Max Temperature 94 °F 82 °F 102 °F (1953)
Min Temperature 63 °F 65 °F 47 °F (1934)
Degree Days  
Heating Degree Days 0 0  
Month to date heating degree days 0 0  
Since 1 June heating degree days 14 18  
Since 1 July heating degree days 0 1  
Cooling Degree Days 14 9  
Month to date cooling degree days 400 336  
Year to date cooling degree days 1271 1034  
Since 1 June cooling degree days 1138 958  
Growing Degree Days 28 (Base 50)    
Moisture  
Dew Point 58 °F    
Average Humidity 52    
Maximum Humidity 78    
Minimum Humidity 26    
Precipitation  
Precipitation 0.00 in 0.10 in 1.36 in (1950)
Month to date precipitation 2.56 3.70  
Year to date precipitation 22.89 31.37  
Snow  
Snow 0.00 in 0.00 in 0.00 in (2002)
Month to date snowfall 0.0 0.0  
Since 1 July snowfall 0.0 0.0  
Snow Depth 0.00 in    
Sea Level Pressure  
Sea Level Pressure 29.99 in    
Wind  
Wind Speed 11 mph (SW)    
Max Wind Speed 21 mph    
Max Gust Speed 25 mph    
Visibility 10 miles    
Events      
T = Trace of Precipitation, MM = Missing Value Source: NWS Daily Summary

Daily Weather History Graph

Daily Weather History Graph

Search for Another Location

Airport or City:

Trip Planner

Search our weather history database for the weather conditions in past years. The results will help you decide how hot, cold, wet, or windy it might be!

Date:

Astronomy

Aug. 31, 2012 Rise Set
Actual Time 6:23 AM EDT 7:29 PM EDT
Civil Twilight 5:55 AM EDT 7:57 PM EDT
Nautical Twilight 5:21 AM EDT 8:31 PM EDT
Astronomical Twilight 4:46 AM EDT 9:06 PM EDT
Moon 7:14 PM EDT (8/31) 6:25 AM EDT (8/31)
Length of Visible Light 14h 02m
Length of Day
13h 06m
Full, 100% of the Moon is Illuminated
Aug 31
Full
Sep 8
Last Quarter
Sep 15
New
Sep 22
First Quarter
Sep 29
Full

Hourly Weather History & Observations

Time (EDT) Temp. Heat Index Dew Point Humidity Pressure Visibility Wind Dir Wind Speed Gust Speed Precip Events Conditions
12:51 AM 71.1 °F - 57.0 °F 61% 30.06 in 10.0 mi WSW 6.9 mph - N/A   Clear
1:51 AM 68.0 °F - 57.9 °F 70% 30.06 in 10.0 mi SW 6.9 mph - N/A   Clear
2:51 AM 68.0 °F - 57.0 °F 68% 30.06 in 10.0 mi WSW 4.6 mph - N/A   Clear
3:51 AM 66.9 °F - 57.9 °F 73% 30.06 in 10.0 mi South 3.5 mph - N/A   Clear
4:51 AM 66.0 °F - 57.9 °F 75% 30.05 in 10.0 mi SW 3.5 mph - N/A   Clear
5:51 AM 64.0 °F - 57.0 °F 78% 30.06 in 10.0 mi WSW 4.6 mph - N/A   Clear
6:51 AM 64.0 °F - 57.9 °F 80% 30.06 in 10.0 mi SSW 4.6 mph - N/A   Partly Cloudy
7:51 AM 69.1 °F - 61.0 °F 75% 30.06 in 10.0 mi SW 4.6 mph - N/A   Partly Cloudy
8:51 AM 75.0 °F - 62.1 °F 64% 30.05 in 10.0 mi WSW 10.4 mph - N/A   Partly Cloudy
9:51 AM 80.6 °F 81.8 °F 62.6 °F 54% 30.05 in 10.0 mi WSW 11.5 mph - N/A   Partly Cloudy
10:51 AM 84.0 °F 85.4 °F 64.0 °F 51% 30.04 in 10.0 mi SSW 12.7 mph - N/A   Partly Cloudy
11:51 AM 89.1 °F 87.3 °F 55.9 °F 32% 30.02 in 10.0 mi West 16.1 mph 23.0 mph N/A   Partly Cloudy
12:51 PM 90.0 °F 87.9 °F 55.0 °F 30% 30.00 in 10.0 mi WSW 12.7 mph - N/A   Partly Cloudy
1:51 PM 91.9 °F 89.5 °F 54.0 °F 27% 29.97 in 10.0 mi West 13.8 mph - N/A   Partly Cloudy
2:51 PM 91.9 °F - 51.1 °F 25% 29.95 in 10.0 mi WSW 12.7 mph 19.6 mph N/A   Partly Cloudy
3:51 PM 93.0 °F 90.8 °F 54.0 °F 27% 29.94 in 10.0 mi WSW 16.1 mph 23.0 mph N/A   Partly Cloudy
4:51 PM 91.9 °F 90.3 °F 55.9 °F 30% 29.91 in 10.0 mi WSW 16.1 mph - N/A   Partly Cloudy
5:51 PM 90.0 °F 88.1 °F 55.9 °F 31% 29.91 in 10.0 mi WSW 15.0 mph 21.9 mph N/A   Partly Cloudy
6:51 PM 87.8 °F 86.5 °F 57.2 °F 35% 29.91 in 10.0 mi WSW 15.0 mph - N/A   Partly Cloudy
7:51 PM 86.0 °F 85.4 °F 59.0 °F 40% 29.91 in 10.0 mi WSW 12.7 mph - N/A   Clear
8:51 PM 84.9 °F 84.4 °F 59.0 °F 41% 29.93 in 10.0 mi WSW 13.8 mph - N/A   Clear
9:51 PM 82.9 °F 83.2 °F 60.1 °F 46% 29.93 in 10.0 mi SW 12.7 mph - N/A   Clear
10:51 PM 81.0 °F 81.6 °F 60.1 °F 49% 29.93 in 10.0 mi WSW 12.7 mph - N/A   Clear
11:51 PM 80.1 °F 80.9 °F 60.1 °F 50% 29.93 in 10.0 mi SW 11.5 mph - N/A   Clear